Miscellaneous Local Product
Issued by NWS Hastings, NE

Home | Current Version | Previous Version | Graphics & Text | Print | Product List | Glossary On
Versions: 1 2 3 4 5 6 7 8 9 10 11 12 13 14 15 16 17 18 19 20 21 22 23 24 25 26 27 28 29 30 31 32 33 34 35 36 37 38 39 40 41 42 43 44 45 46 47 48 49 50
000
AXUS43 KGID 190202
MISGRI

GID CWA HOURLY WEATHER ROUNDUP
NATIONAL WEATHER SERVICE HASTINGS NE
900 PM CDT FRI APR 18 2014

NOTE: "FAIR" INDICATES FEW OR NO CLOUDS BELOW 12,000 FEET WITH NO
SIGNIFICANT WEATHER AND/OR OBSTRUCTIONS TO VISIBILITY.

...SOUTH CENTRAL NEBRASKA...

CITY           SKY/WX    TMP DP  RH WIND       PRES   REMARKS
GRAND ISLAND   PTCLDY    63  41  44 S18       30.00R
HASTINGS       PTCLDY    63  40  42 S14       30.00R
KEARNEY        PTCLDY    61  43  51 S21       29.99R
ORD            PTCLDY    63  41  44 S14       29.92R
YORK           CLOUDY    63  41  45 S14       30.03R
AURORA         MOCLDY    64  42  43 S16       30.01R
LEXINGTON      PTCLDY    63  44  50 S15       29.95R
HOLDREGE       PTCLDY    61  42  49 S14       29.98R
HEBRON         MOCLDY    62  41  45 S8        30.05R

...NEBRASKA PANHANDLE...

CITY           SKY/WX    TMP DP  RH WIND       PRES   REMARKS
CHADRON        CLOUDY    71  38  29 W14G22    29.68R
ALLIANCE       MOCLDY    67  34  29 S21       29.75S
SCOTTSBLUFF    CLOUDY    71  30  21 S12       29.75R
SIDNEY         CLOUDY    64  33  31 S15       29.83F

...WESTERN AND NORTH CENTRAL NEBRASKA...

CITY           SKY/WX    TMP DP  RH WIND       PRES   REMARKS
VALENTINE      CLOUDY    67  41  38 S25G35    29.75R
AINSWORTH      CLOUDY    65  41  41 S28G35    29.79F
ONEILL         MOCLDY    65  38  36 S21G30    29.88S
BROKEN BOW     MOCLDY    62  43  49 S20       29.92R
IMPERIAL       PTCLDY    65  43  44 MISG      29.88R
NORTH PLATTE   PTCLDY    64  43  46 SE14      29.90R
MCCOOK         PTCLDY    64  43  46 S20G25    29.92S

...EASTERN NEBRASKA...

CITY           SKY/WX    TMP DP  RH WIND       PRES   REMARKS
NORFOLK        CLOUDY    61  40  45 S21       29.98R
SO SIOUX CITY  CLOUDY    62  39  42 S16G24    30.02S
TEKAMAH        CLOUDY    61  38  42 S15       30.05S
COLUMBUS       CLOUDY    61  39  44 SE15      30.03R
ALBION         CLOUDY    61  40  45 S16G22    29.97S
OMAHA EPPLEY   CLOUDY    63  39  41 S14       30.08R
OFFUTT AFB     MOCLDY    60  40  48 SE12      30.09R
MILLARD        MOCLDY    62  40  44 SE9       30.07S
LINCOLN        CLOUDY    63  39  41 SE15      30.07R
NEBRASKA CITY  PTCLDY    60  39  47 S12       30.11S
BEATRICE       CLOUDY    63  39  40 SE9       30.07R
FALLS CITY     PTCLDY    59  40  49 S9        30.12

...NORTHERN KANSAS...

CITY           SKY/WX    TMP DP  RH WIND       PRES   REMARKS
GOODLAND       MOCLDY    63  42  46 S21       29.91S
HILL CITY      CLEAR     65  41  41 S10G21    29.99R
PHILLIPSBURG   CLEAR     64  41  42 SE14      30.00R
SMITH CENTER   CLEAR     61  41  48 SE15      30.03R
BELOIT         CLEAR     63  41  45 SE10      30.04R
HAYS           PTCLDY    63  43  48 SE16      30.03R
RUSSELL        PTCLDY    61  42  49 SE15      30.03R
CONCORDIA      MOCLDY    61  42  49 S10       30.06R
SALINA         CLEAR     62  41  46 S12       30.08R
TOPEKA         PTCLDY    58  41  53 SE7       30.14R



USA.gov is the U.S. government's official web portal to all federal, state and local government web resources and services.